This is the latest recevied weather packets stored in our database for station/object DO1YM-13. If no packets are shown the sender has not sent any weather packets the latest 10 day(s).
| Time | Temp. | Humidity | Pressure | Rain* | Wind** | Luminosity | Snow |
|---|---|---|---|---|---|---|---|
| 1787831748 | 26.11° C | 37% | 1013.2 hPa | 0 mm | - | 168 W/m² | - |
| 1787831448 | 26.67° C | 36% | 1013.2 hPa | 0 mm | - | 705 W/m² | - |
| 1787831147 | 26.67° C | 36% | 1013.2 hPa | 0 mm | - | 705 W/m² | - |
| 1787830847 | 26.67° C | 36% | 1013.2 hPa | 0 mm | - | 583 W/m² | - |
| 1787830547 | 26.67° C | 36% | 1013.2 hPa | 0 mm | - | 699 W/m² | - |
| 1787830248 | 26.67° C | 36% | 1013.2 hPa | 0 mm | - | 698 W/m² | - |
| 1787829948 | 26.11° C | 36% | 1013.2 hPa | 0 mm | - | 700 W/m² | - |
| 1787829648 | 26.67° C | 35% | 1013.5 hPa | 0 mm | - | 706 W/m² | - |
| 1787829348 | 26.11° C | 36% | 1013.5 hPa | 0 mm | - | 696 W/m² | - |
| 1787829047 | 26.11° C | 37% | 1013.5 hPa | 0 mm | - | 695 W/m² | - |
| 1787828747 | 26.11° C | 36% | 1013.9 hPa | 0 mm | - | 695 W/m² | - |
| 1787828448 | 26.67° C | 37% | 1013.9 hPa | 0 mm | - | 693 W/m² | - |
| 1787828147 | 26.11° C | 38% | 1014.2 hPa | 0 mm | - | 689 W/m² | - |
| 1787827847 | 25.56° C | 40% | 1014.2 hPa | 0 mm | - | 686 W/m² | - |
| 1787827547 | 25.56° C | 40% | 1014.2 hPa | 0 mm | - | 684 W/m² | - |
| 1787827248 | 26.11° C | 39% | 1014.2 hPa | 0 mm | - | 682 W/m² | - |
| 1787826949 | 26.11° C | 39% | 1014.2 hPa | 0 mm | - | 679 W/m² | - |
| 1787826648 | 25.56° C | 41% | 1014.2 hPa | 0 mm | - | 685 W/m² | - |
| 1787826348 | 25.56° C | 39% | 1014.2 hPa | 0 mm | - | 680 W/m² | - |
| 1787826047 | 25.56° C | 41% | 1014.2 hPa | 0 mm | - | 679 W/m² | - |
| 1787825748 | 25.56° C | 41% | 1014.2 hPa | 0 mm | - | 682 W/m² | - |
| 1787825448 | 25.56° C | 41% | 1014.2 hPa | 0 mm | - | 674 W/m² | - |
| 1787825147 | 25.56° C | 41% | 1014.6 hPa | 0 mm | - | 672 W/m² | - |
| 1787824847 | 25.56° C | 42% | 1014.6 hPa | 0 mm | - | 662 W/m² | - |
| 1787824547 | 25° C | 43% | 1014.6 hPa | 0 mm | - | 653 W/m² | - |
* Rain since midnight (hover to see other rain measurements)
** Current wind speed in m/s (hover to see current wind gust speed)